User: anonymous   Login
Location: Unspecified
(0.0000°N, 0.0000°E)
Time: 23:53:21
(UTC+00:00)
Language:

TBA - TO BE ASSIGNED - Orbit

View from above orbital plane
View from above orbital plane
View from above satellite
View from above satellite

Ground track
Ground track

The orbit is defined by the following mean orbital elements,

1 67956U          26145.20718167 +.00000000 +00000-0 +58667-3 0 00001
2 67956  42.9991 118.5337 0001583 268.6917  91.3754 15.27586291    08
Epoch (UTC): 25 May 2026 04:58:20
Eccentricity: 0.0001583
inclination: 42.9991°
perigee height: 482 km
apogee height: 484 km
right ascension of ascending node: 118.5337°
argument of perigee: 268.6917°
revolutions per day: 15.27586291
mean anomaly at epoch: 91.3754°

The dashed part of the orbit path shows where the satellite is in the earth's shadow,  

DLR